Time,TemperatureF,DewpointF,PressureIn,WindDirection,WindDirectionDegrees,WindSpeedMPH,WindSpeedGustMPH,Humidity,HourlyPrecipIn,Conditions,Clouds,dailyrainin,SolarRadiationWatts/m^2,SoftwareType,DateUTC
2013-12-25 00:02:00,25.0,24.0,-100.00,SSE,156,10.0,16.0,94,0.00,,,0.00,0.000000,,2013-12-25 06:02:00,
2013-12-25 00:42:00,25.0,24.0,-100.00,SSE,154,9.0,13.0,96,0.00,,,0.00,0.000000,,2013-12-25 06:42:00,
2013-12-25 00:52:00,25.0,24.0,-100.00,SSE,154,9.0,13.0,96,0.00,,,0.00,0.000000,,2013-12-25 06:52:00,
2013-12-25 01:01:00,25.0,24.0,-100.00,SSE,154,9.0,13.0,96,0.00,,,0.00,0.000000,,2013-12-25 07:01:00,
2013-12-25 01:42:00,25.0,24.0,-100.00,SSE,156,9.0,12.0,96,0.00,,,0.00,0.000000,,2013-12-25 07:42:00,
2013-12-25 01:52:00,25.0,24.0,-100.00,SSE,156,9.0,12.0,96,0.00,,,0.00,0.000000,,2013-12-25 07:52:00,
2013-12-25 02:01:00,25.0,24.0,-100.00,SSE,156,9.0,12.0,96,0.00,,,0.00,0.000000,,2013-12-25 08:01:00,
2013-12-25 02:42:00,25.0,24.0,-100.00,SSE,155,9.0,11.0,97,0.00,,,0.00,0.000000,,2013-12-25 08:42:00,
2013-12-25 02:53:00,25.0,24.0,-100.00,SSE,155,9.0,11.0,97,0.00,,,0.00,0.000000,,2013-12-25 08:53:00,
2013-12-25 03:02:00,25.0,24.0,-100.00,SSE,155,9.0,11.0,97,0.00,,,0.00,0.000000,,2013-12-25 09:02:00,
2013-12-25 03:42:00,26.0,25.0,-100.00,SSE,149,8.0,11.0,97,0.00,,,0.00,0.000000,,2013-12-25 09:42:00,
2013-12-25 03:52:00,26.0,25.0,-100.00,SSE,149,8.0,11.0,97,0.00,,,0.00,0.000000,,2013-12-25 09:52:00,
2013-12-25 04:02:00,26.0,25.0,-100.00,SSE,149,8.0,11.0,97,0.00,,,0.00,0.000000,,2013-12-25 10:02:00,
2013-12-25 04:43:00,26.0,26.0,-100.00,SE,142,8.0,10.0,100,0.00,,,0.00,0.000000,,2013-12-25 10:43:00,
2013-12-25 04:53:00,26.0,26.0,-100.00,SE,142,8.0,10.0,100,0.00,,,0.00,0.000000,,2013-12-25 10:53:00,
2013-12-25 05:02:00,26.0,26.0,-100.00,SE,142,8.0,10.0,100,0.00,,,0.00,0.000000,,2013-12-25 11:02:00,
2013-12-25 05:43:00,26.0,26.0,-100.00,SE,136,7.0,9.0,100,0.00,,,0.00,0.000000,,2013-12-25 11:43:00,
2013-12-25 05:52:00,26.0,26.0,-100.00,SE,136,7.0,9.0,100,0.00,,,0.00,0.000000,,2013-12-25 11:52:00,
2013-12-25 06:02:00,26.0,26.0,-100.00,SE,136,7.0,9.0,100,0.00,,,0.00,0.000000,,2013-12-25 12:02:00,
2013-12-25 06:42:00,26.0,26.0,-100.00,SE,138,6.0,9.0,100,0.00,,,0.00,0.000000,,2013-12-25 12:42:00,
2013-12-25 06:52:00,26.0,26.0,-100.00,SE,138,6.0,9.0,100,0.00,,,0.00,0.000000,,2013-12-25 12:52:00,
2013-12-25 07:02:00,26.0,26.0,-100.00,SE,138,6.0,9.0,100,0.00,,,0.00,0.000000,,2013-12-25 13:02:00,
2013-12-25 07:42:00,26.0,26.0,-100.00,SSE,150,4.0,6.0,100,0.00,,,0.00,0.000000,,2013-12-25 13:42:00,
2013-12-25 07:52:00,26.0,26.0,-100.00,SSE,150,4.0,6.0,100,0.00,,,0.00,0.000000,,2013-12-25 13:52:00,
2013-12-25 08:02:00,26.0,26.0,-100.00,SSE,150,4.0,6.0,100,0.00,,,0.00,0.000000,,2013-12-25 14:02:00,
2013-12-25 08:42:00,28.0,28.0,-100.00,SSE,155,5.0,6.0,100,0.00,,,0.00,22.000000,,2013-12-25 14:42:00,
2013-12-25 08:52:00,28.0,28.0,-100.00,SSE,155,5.0,6.0,100,0.00,,,0.00,22.000000,,2013-12-25 14:52:00,
2013-12-25 09:02:00,28.0,28.0,-100.00,SSE,155,5.0,6.0,100,0.00,,,0.00,22.000000,,2013-12-25 15:02:00,
2013-12-25 09:43:00,34.0,31.0,-100.00,SW,223,3.0,6.0,88,0.00,,,0.00,169.000000,,2013-12-25 15:43:00,
2013-12-25 09:54:00,34.0,31.0,-100.00,SW,223,3.0,6.0,88,0.00,,,0.00,169.000000,,2013-12-25 15:54:00,
2013-12-25 10:03:00,34.0,31.0,-100.00,SW,223,3.0,6.0,88,0.00,,,0.00,169.000000,,2013-12-25 16:03:00,
2013-12-25 10:42:00,37.0,30.0,-100.00,WNW,282,7.0,12.0,75,0.00,,,0.00,343.000000,,2013-12-25 16:42:00,
2013-12-25 10:53:00,37.0,30.0,-100.00,WNW,282,7.0,12.0,75,0.00,,,0.00,343.000000,,2013-12-25 16:53:00,
2013-12-25 11:02:00,37.0,30.0,-100.00,WNW,282,7.0,12.0,75,0.00,,,0.00,343.000000,,2013-12-25 17:02:00,
2013-12-25 11:42:00,40.0,31.0,-100.00,WSW,241,6.0,12.0,70,0.00,,,0.00,485.000000,,2013-12-25 17:42:00,
2013-12-25 11:52:00,40.0,31.0,-100.00,WSW,241,6.0,12.0,70,0.00,,,0.00,485.000000,,2013-12-25 17:52:00,
2013-12-25 12:02:00,40.0,31.0,-100.00,WSW,241,6.0,12.0,70,0.00,,,0.00,485.000000,,2013-12-25 18:02:00,
2013-12-25 12:42:00,39.0,30.0,-100.00,SSW,207,6.0,12.0,69,0.00,,,0.00,545.000000,,2013-12-25 18:42:00,
2013-12-25 12:52:00,39.0,30.0,-100.00,SSW,207,6.0,12.0,69,0.00,,,0.00,545.000000,,2013-12-25 18:52:00,
2013-12-25 13:01:00,39.0,30.0,-100.00,SSW,207,6.0,12.0,69,0.00,,,0.00,545.000000,,2013-12-25 19:01:00,
2013-12-25 13:42:00,40.0,31.0,-100.00,SW,215,7.0,12.0,71,0.00,,,0.00,420.000000,,2013-12-25 19:42:00,
2013-12-25 13:52:00,40.0,31.0,-100.00,SW,215,7.0,12.0,71,0.00,,,0.00,420.000000,,2013-12-25 19:52:00,
2013-12-25 14:01:00,40.0,31.0,-100.00,SW,215,7.0,12.0,71,0.00,,,0.00,420.000000,,2013-12-25 20:01:00,
2013-12-25 14:42:00,41.0,31.0,-100.00,WNW,293,6.0,10.0,67,0.00,,,0.00,297.000000,,2013-12-25 20:42:00,
2013-12-25 14:52:00,41.0,31.0,-100.00,WNW,293,6.0,10.0,67,0.00,,,0.00,297.000000,,2013-12-25 20:52:00,
2013-12-25 15:02:00,41.0,31.0,-100.00,WNW,293,6.0,10.0,67,0.00,,,0.00,297.000000,,2013-12-25 21:02:00,
2013-12-25 15:43:00,44.0,33.0,-100.00,West,267,5.0,9.0,64,0.00,,,0.00,326.000000,,2013-12-25 21:43:00,
2013-12-25 15:53:00,44.0,33.0,-100.00,West,267,5.0,9.0,64,0.00,,,0.00,326.000000,,2013-12-25 21:53:00,
2013-12-25 16:03:00,44.0,33.0,-100.00,West,267,5.0,9.0,64,0.00,,,0.00,326.000000,,2013-12-25 22:03:00,
2013-12-25 16:43:00,42.0,31.0,-100.00,WSW,237,5.0,9.0,65,0.00,,,0.00,274.000000,,2013-12-25 22:43:00,
2013-12-25 16:53:00,42.0,31.0,-100.00,WSW,237,5.0,9.0,65,0.00,,,0.00,274.000000,,2013-12-25 22:53:00,
2013-12-25 17:02:00,42.0,31.0,-100.00,WSW,237,5.0,9.0,65,0.00,,,0.00,274.000000,,2013-12-25 23:02:00,
2013-12-25 17:43:00,38.0,30.0,-100.00,WSW,250,4.0,8.0,73,0.00,,,0.00,81.000000,,2013-12-25 23:43:00,
2013-12-25 17:52:00,38.0,30.0,-100.00,WSW,250,4.0,8.0,73,0.00,,,0.00,81.000000,,2013-12-25 23:52:00,
2013-12-25 18:01:00,38.0,30.0,-100.00,WSW,250,4.0,8.0,73,0.00,,,0.00,81.000000,,2013-12-26 00:01:00,
2013-12-25 18:42:00,36.0,31.0,-100.00,NW,323,4.0,5.0,82,0.00,,,0.00,1.000000,,2013-12-26 00:42:00,
2013-12-25 18:52:00,36.0,31.0,-100.00,NW,323,4.0,5.0,82,0.00,,,0.00,1.000000,,2013-12-26 00:52:00,
2013-12-25 19:01:00,36.0,31.0,-100.00,NW,323,4.0,5.0,82,0.00,,,0.00,1.000000,,2013-12-26 01:01:00,
2013-12-25 19:42:00,36.0,31.0,-100.00,NNW,328,6.0,8.0,83,0.00,,,0.00,0.000000,,2013-12-26 01:42:00,
2013-12-25 19:52:00,36.0,31.0,-100.00,NNW,328,6.0,8.0,83,0.00,,,0.00,0.000000,,2013-12-26 01:52:00,
2013-12-25 20:02:00,36.0,31.0,-100.00,NNW,328,6.0,8.0,83,0.00,,,0.00,0.000000,,2013-12-26 02:02:00,
2013-12-25 20:52:00,36.0,32.0,-100.00,NNW,328,6.0,10.0,85,0.00,,,0.00,0.000000,,2013-12-26 02:52:00,
2013-12-25 21:02:00,36.0,32.0,-100.00,NNW,328,6.0,10.0,85,0.00,,,0.00,0.000000,,2013-12-26 03:02:00,
2013-12-25 21:43:00,35.0,32.0,-100.00,NNW,330,10.0,14.0,87,0.00,,,0.00,0.000000,,2013-12-26 03:43:00,
2013-12-25 21:53:00,35.0,32.0,-100.00,NNW,330,10.0,14.0,87,0.00,,,0.00,0.000000,,2013-12-26 03:53:00,
2013-12-25 22:03:00,35.0,32.0,-100.00,NNW,330,10.0,14.0,87,0.00,,,0.00,0.000000,,2013-12-26 04:03:00,
2013-12-25 22:43:00,34.0,32.0,-100.00,NNW,330,11.0,15.0,93,0.00,,,0.00,0.000000,,2013-12-26 04:43:00,
2013-12-25 22:52:00,34.0,32.0,-100.00,NNW,330,11.0,15.0,93,0.00,,,0.00,0.000000,,2013-12-26 04:52:00,
2013-12-25 23:02:00,34.0,32.0,-100.00,NNW,330,11.0,15.0,93,0.00,,,0.00,0.000000,,2013-12-26 05:02:00,
2013-12-25 23:43:00,34.0,29.0,-100.00,NNW,332,10.0,14.0,83,0.00,,,0.00,0.000000,,2013-12-26 05:43:00,
2013-12-25 23:53:00,34.0,29.0,-100.00,NNW,332,10.0,14.0,83,0.00,,,0.00,0.000000,,2013-12-26 05:53:00,